Humidity-temperature Sensor

Selected Measurement Type: Relative Humidity

 
Relative Humidity [%]     6 entries per hour
Showing data from 3/14/2023 (00:00:00 Z) to 3/7/2023 (00:01:00 Z)
Previous Next [ Day | 3-Days | 7-Days ]
First Last
Prev [ Day | 3-Days | 7-Days ] Next
First Last

Start Time:     :
End Time:     :     
Time (in GMT) :00 :50 :40 :30 :20 :10
Previous Next [ Day | 3-Days | 7-Days ]
First Last
Prev [ Day | 3-Days | 7-Days ] Next
First Last


123 => good data
MM => data is determined as missing
-- => data not received/configured
Back to Top Back to Top
3/14/2023 00:00 to 23:10 84.39 84.68 84.06 83.85 83.85 83.89
3/13/2023 23:00 to 22:10 84.06 84.26 84.45 84.53 84.68 84.49
3/13/2023 22:00 to 21:10 84.61 84.72 84.90 84.78 84.41 84.20
3/13/2023 21:00 to 20:10 83.73 84.08 84.51 84.29 84.00 83.09
3/13/2023 20:00 to 19:10 82.79 82.15 81.88 83.63 83.53 82.70
3/13/2023 19:00 to 18:10 82.37 81.51 80.46 79.62 78.61 79.50
3/13/2023 18:00 to 17:10 79.60 79.95 80.34 80.81 80.81 80.55
3/13/2023 17:00 to 16:10 80.01 80.67 81.06 81.43 82.00 81.96
3/13/2023 16:00 to 15:10 82.23 81.84 82.42 82.99 83.03 82.33
3/13/2023 15:00 to 14:10 81.84 81.70 81.98 81.96 81.78 81.16
3/13/2023 14:00 to 13:10 80.77 80.63 80.71 81.06 81.43 82.17
3/13/2023 13:00 to 12:10 82.60 82.91 83.30 83.30 83.55 83.61
3/13/2023 12:00 to 11:10 83.01 82.87 83.01 83.32 83.48 83.61
3/13/2023 11:00 to 10:10 83.65 83.61 83.38 83.32 83.24 83.09
3/13/2023 10:00 to 9:10 83.07 82.95 83.05 82.66 82.31 82.09
3/13/2023 09:00 to 8:10 81.96 82.02 82.02 82.31 82.29 82.76
3/13/2023 08:00 to 7:10 83.16 83.32 83.07 82.99 82.74 82.95
3/13/2023 07:00 to 6:10 83.03 83.24 83.65 83.63 83.48 83.30
3/13/2023 06:00 to 5:10 83.30 82.99 82.74 82.83 82.76 82.56
3/13/2023 05:00 to 4:10 82.17 82.13 81.96 82.09 81.86 81.61
3/13/2023 04:00 to 3:10 81.94 82.17 82.27 81.96 81.51 81.84
3/13/2023 03:00 to 2:10 82.33 83.09 83.01 83.18 83.34 83.01
3/13/2023 02:00 to 1:10 83.24 82.99 83.53 83.61 83.81 83.89
3/13/2023 01:00 to 0:10 83.63 83.59 83.87 84.12 83.81 83.87
3/13/2023 00:00 to 23:10 83.57 83.18 83.36 82.95 82.54 82.23
3/12/2023 23:00 to 22:10 81.55 81.20 81.04 81.94 82.29 82.62
3/12/2023 22:00 to 21:10 82.42 82.23 82.27 82.50 82.50 82.99
3/12/2023 21:00 to 20:10 83.61 83.83 84.06 83.83 83.73 83.59
3/12/2023 20:00 to 19:10 83.30 83.16 82.85 82.39 82.39 82.00
3/12/2023 19:00 to 18:10 82.23 82.19 82.39 82.33 82.44 82.15
3/12/2023 18:00 to 17:10 -- -- -- -- -- --
3/12/2023 17:00 to 16:10 83.13 83.32 83.24 83.34 83.03 82.89
3/12/2023 16:00 to 15:10 82.52 82.72 82.56 82.44 82.09 82.05
3/12/2023 15:00 to 14:10 81.88 82.46 82.95 83.18 82.81 82.48
3/12/2023 14:00 to 13:10 82.97 83.32 83.42 83.92 84.14 84.02
3/12/2023 13:00 to 12:10 84.53 84.96 84.72 84.86 85.03 85.44
3/12/2023 12:00 to 11:10 85.66 85.72 85.76 86.18 86.01 85.91
3/12/2023 11:00 to 10:10 85.74 85.79 85.99 85.87 86.34 86.42
3/12/2023 10:00 to 9:10 86.50 86.22 86.57 86.40 86.22 86.46
3/12/2023 09:00 to 8:10 86.55 86.63 87.14 87.26 86.98 87.24
3/12/2023 08:00 to 7:10 87.76 87.78 87.76 87.84 87.74 88.05
3/12/2023 07:00 to 6:10 88.11 88.03 88.25 88.48 88.25 88.23
3/12/2023 06:00 to 5:10 88.17 87.55 86.65 86.32 85.91 85.95
3/12/2023 05:00 to 4:10 85.64 85.25 85.15 84.94 84.92 84.88
3/12/2023 04:00 to 3:10 84.76 84.45 84.29 84.39 84.10 84.43
3/12/2023 03:00 to 2:10 84.84 85.05 85.19 85.48 85.68 85.70
3/12/2023 02:00 to 1:10 85.31 85.00 84.90 84.88 84.47 84.43
3/12/2023 01:00 to 0:10 84.78 84.82 84.76 84.80 84.53 84.37
3/12/2023 00:00 to 23:10 84.24 84.22 83.85 83.50 83.63 84.02
3/11/2023 23:00 to 22:10 83.75 83.89 84.29 83.92 84.16 84.96
3/11/2023 22:00 to 21:10 85.62 85.74 85.56 84.90 84.31 83.96
3/11/2023 21:00 to 20:10 83.69 84.16 84.53 84.84 85.05 84.80
3/11/2023 20:00 to 19:10 84.72 84.96 84.74 84.70 84.72 85.05
3/11/2023 19:00 to 18:10 85.25 85.23 85.17 85.27 85.11 85.21
3/11/2023 18:00 to 17:10 85.42 85.35 85.33 85.11 85.15 85.27
3/11/2023 17:00 to 16:10 85.13 84.90 84.80 84.90 84.49 84.37
3/11/2023 16:00 to 15:10 84.39 84.86 84.80 84.63 84.84 84.63
3/11/2023 15:00 to 14:10 83.65 83.26 82.56 82.70 83.32 83.22
3/11/2023 14:00 to 13:10 83.87 83.98 83.83 84.26 84.47 85.00
3/11/2023 13:00 to 12:10 85.70 85.39 85.39 85.64 86.20 86.26
3/11/2023 12:00 to 11:10 86.30 86.11 86.01 86.16 85.81 85.76
3/11/2023 11:00 to 10:10 85.70 85.50 85.15 84.94 84.88 84.37
3/11/2023 10:00 to 9:10 84.14 84.08 82.85 82.48 83.42 84.86
3/11/2023 09:00 to 8:10 85.54 85.15 84.63 84.92 85.52 86.03
3/11/2023 08:00 to 7:10 85.87 85.58 85.19 85.52 85.46 85.39
3/11/2023 07:00 to 6:10 86.16 86.18 86.03 86.53 86.90 86.73
3/11/2023 06:00 to 5:10 86.73 86.55 86.63 86.55 86.71 86.79
3/11/2023 05:00 to 4:10 86.32 86.30 86.69 86.36 85.99 85.99
3/11/2023 04:00 to 3:10 85.60 85.70 85.54 85.05 84.72 85.29
3/11/2023 03:00 to 2:10 86.09 86.03 86.03 86.48 86.24 86.18
3/11/2023 02:00 to 1:10 86.26 86.36 86.46 86.07 85.91 85.89
3/11/2023 01:00 to 0:10 85.93 86.13 85.68 85.66 85.09 85.09
3/11/2023 00:00 to 23:10 85.33 85.31 85.39 86.03 86.05 86.09
3/10/2023 23:00 to 22:10 85.37 85.64 85.60 85.21 85.39 85.72
3/10/2023 22:00 to 21:10 85.62 85.33 85.29 85.21 85.19 85.33
3/10/2023 21:00 to 20:10 85.23 85.07 84.98 84.24 84.18 84.43
3/10/2023 20:00 to 19:10 84.26 84.49 84.47 84.61 85.00 85.62
3/10/2023 19:00 to 18:10 85.29 84.98 84.90 85.37 86.05 85.87
3/10/2023 18:00 to 17:10 85.79 85.46 85.39 85.39 85.00 84.98
3/10/2023 17:00 to 16:10 85.17 86.20 86.92 86.01 86.05 85.93
3/10/2023 16:00 to 15:10 86.01 85.23 85.91 86.22 86.34 86.13
3/10/2023 15:00 to 14:10 85.72 85.58 85.31 85.39 85.54 85.56
3/10/2023 14:00 to 13:10 85.79 86.07 86.44 86.59 86.34 86.28
3/10/2023 13:00 to 12:10 86.32 86.20 86.24 85.85 86.24 86.59
3/10/2023 12:00 to 11:10 86.73 86.38 85.81 85.70 86.03 85.81
3/10/2023 11:00 to 10:10 85.95 85.66 85.25 84.96 85.29 85.66
3/10/2023 10:00 to 9:10 85.81 85.91 86.32 86.67 86.30 85.72
3/10/2023 09:00 to 8:10 85.42 85.03 84.68 84.57 85.00 85.42
3/10/2023 08:00 to 7:10 85.48 84.90 84.26 83.85 83.96 83.77
3/10/2023 07:00 to 6:10 84.12 83.81 83.81 84.04 84.41 84.39
3/10/2023 06:00 to 5:10 84.33 84.41 84.61 85.07 84.88 84.68
3/10/2023 05:00 to 4:10 84.43 84.31 83.83 83.55 84.16 83.98
3/10/2023 04:00 to 3:10 84.18 83.77 84.29 84.84 85.11 84.20
3/10/2023 03:00 to 2:10 83.30 82.81 82.54 83.11 83.61 83.71
3/10/2023 02:00 to 1:10 83.98 84.45 84.08 84.12 83.65 84.41
3/10/2023 01:00 to 0:10 84.26 83.71 82.72 82.42 82.76 82.68
3/10/2023 00:00 to 23:10 82.68 82.83 83.38 83.24 83.28 82.81
3/9/2023 23:00 to 22:10 83.11 83.24 83.46 83.69 83.46 83.75
3/9/2023 22:00 to 21:10 83.75 83.85 84.10 84.47 84.31 84.45
3/9/2023 21:00 to 20:10 85.23 84.74 84.49 84.80 84.74 85.21
3/9/2023 20:00 to 19:10 85.31 84.88 84.70 84.96 85.03 84.49
3/9/2023 19:00 to 18:10 84.16 84.02 83.92 84.96 84.88 84.57
3/9/2023 18:00 to 17:10 84.61 84.68 84.39 84.68 84.61 84.37
3/9/2023 17:00 to 16:10 84.16 84.90 84.84 84.51 84.57 85.07
3/9/2023 16:00 to 15:10 85.42 85.39 85.07 84.84 85.23 85.64
3/9/2023 15:00 to 14:10 85.19 85.64 85.89 86.09 86.44 86.77
3/9/2023 14:00 to 13:10 86.55 85.44 84.80 84.02 83.55 84.39
3/9/2023 13:00 to 12:10 84.22 84.10 84.90 84.22 84.12 84.08
3/9/2023 12:00 to 11:10 84.96 84.80 84.76 84.20 83.87 84.88
3/9/2023 11:00 to 10:10 84.47 84.53 84.08 84.33 84.82 84.43
3/9/2023 10:00 to 9:10 85.05 84.47 84.16 84.57 84.37 84.59
3/9/2023 09:00 to 8:10 83.87 83.67 84.18 84.33 84.55 83.94
3/9/2023 08:00 to 7:10 84.00 85.21 85.85 86.50 86.85 86.40
3/9/2023 07:00 to 6:10 85.52 83.94 83.81 84.51 84.68 84.49
3/9/2023 06:00 to 5:10 84.12 84.12 83.22 83.69 84.08 84.35
3/9/2023 05:00 to 4:10 85.39 85.15 84.72 84.24 84.43 84.49
3/9/2023 04:00 to 3:10 83.92 83.09 83.13 83.30 82.85 82.64
3/9/2023 03:00 to 2:10 82.17 81.78 81.43 83.13 82.95 82.44
3/9/2023 02:00 to 1:10 82.87 83.61 84.66 85.29 85.66 85.70
3/9/2023 01:00 to 0:10 85.74 85.95 86.44 85.87 84.96 84.43
3/9/2023 00:00 to 23:10 85.05 85.58 85.87 86.18 86.24 85.35
3/8/2023 23:00 to 22:10 85.68 85.81 85.42 85.79 85.79 85.85
3/8/2023 22:00 to 21:10 86.42 86.38 86.38 85.81 85.15 84.45
3/8/2023 21:00 to 20:10 83.83 82.72 82.60 82.29 82.35 82.56
3/8/2023 20:00 to 19:10 82.52 82.83 82.52 82.66 82.33 81.74
3/8/2023 19:00 to 18:10 82.09 81.45 82.17 82.95 82.91 83.50
3/8/2023 18:00 to 17:10 83.87 84.29 84.70 85.21 84.92 84.86
3/8/2023 17:00 to 16:10 84.90 84.88 84.86 84.88 84.70 85.33
3/8/2023 16:00 to 15:10 86.16 86.77 87.78 87.96 87.90 87.18
3/8/2023 15:00 to 14:10 87.10 87.06 87.02 86.55 86.57 87.26
3/8/2023 14:00 to 13:10 87.82 87.92 87.74 87.37 87.45 86.79
3/8/2023 13:00 to 12:10 86.61 87.51 87.98 88.35 88.42 88.58
3/8/2023 12:00 to 11:10 88.95 89.53 90.10 89.90 89.87 89.85
3/8/2023 11:00 to 10:10 89.50 89.48 89.48 89.44 89.61 89.63
3/8/2023 10:00 to 9:10 89.48 89.30 88.77 88.70 88.58 88.68
3/8/2023 09:00 to 8:10 88.77 88.83 88.77 88.85 88.58 88.46
3/8/2023 08:00 to 7:10 88.42 88.03 88.09 88.19 88.07 88.05
3/8/2023 07:00 to 6:10 87.68 87.49 87.55 87.84 87.57 87.41
3/8/2023 06:00 to 5:10 87.33 87.18 86.90 86.63 86.77 86.44
3/8/2023 05:00 to 4:10 86.67 87.31 87.49 88.03 87.94 88.03
3/8/2023 04:00 to 3:10 88.15 88.23 88.15 87.66 87.49 86.77
3/8/2023 03:00 to 2:10 86.85 86.73 87.06 86.94 86.69 86.55
3/8/2023 02:00 to 1:10 86.26 86.18 86.87 87.55 87.74 88.09
3/8/2023 01:00 to 0:10 88.15 88.23 88.44 89.05 89.44 89.59
3/8/2023 00:00 to 23:10 89.32 88.95 89.11 89.32 89.28 89.38
3/7/2023 23:00 to 22:10 89.48 89.50 89.42 89.50 89.38 89.53
3/7/2023 22:00 to 21:10 89.79 89.98 90.20 90.66 90.37 90.06
3/7/2023 21:00 to 20:10 89.94 90.02 89.61 88.93 89.03 88.72
3/7/2023 20:00 to 19:10 88.74 88.87 89.05 89.38 89.28 89.09
3/7/2023 19:00 to 18:10 88.85 88.37 88.44 88.00 88.05 88.03
3/7/2023 18:00 to 17:10 87.20 86.77 86.34 85.50 85.33 85.42
3/7/2023 17:00 to 16:10 85.37 84.90 84.80 85.13 85.33 84.90
3/7/2023 16:00 to 15:10 84.78 84.88 85.58 85.97 86.34 86.55
3/7/2023 15:00 to 14:10 86.85 86.94 86.53 86.03 86.03 86.30
3/7/2023 14:00 to 13:10 86.34 86.71 86.34 85.70 85.54 85.72
3/7/2023 13:00 to 12:10 86.28 86.98 87.55 87.68 86.92 86.65
3/7/2023 12:00 to 11:10 86.63 86.53 86.38 86.77 86.71 87.33
3/7/2023 11:00 to 10:10 87.29 86.73 86.55 86.28 86.79 87.18
3/7/2023 10:00 to 9:10 87.66 87.68 87.57 87.51 88.05 88.29
3/7/2023 09:00 to 8:10 88.48 88.66 89.09 88.95 89.75 90.33
3/7/2023 08:00 to 7:10 90.78 90.92 90.53 90.37 90.92 90.92
3/7/2023 07:00 to 6:10 90.70 90.27 89.71 89.36 88.87 88.60
3/7/2023 06:00 to 5:10 88.81 88.66 88.54 88.50 88.40 88.13
3/7/2023 05:00 to 4:10 88.68 88.68 88.48 88.56 88.54 88.33
3/7/2023 04:00 to 3:10 88.15 88.25 88.42 88.33 88.27 88.52
3/7/2023 03:00 to 2:10 88.83 88.64 88.44 88.05 88.05 87.86
3/7/2023 02:00 to 1:10 87.88 87.66 88.29 88.25 88.77 88.62
3/7/2023 01:00 to 0:10 88.66 88.13 88.03 87.92 88.09 87.68